Location: Misciano
(43.5000°N, 11.9500°E)
Time: 08:24:24
(UTC+00:00)

Terra - Pass Details

Date: 13 August 2020
Orbit: 701 x 703 km, 98.2° (Epoch: 26 September)

Event Time Altitude Azimuth Distance (km) Brightness Sun altitude
Exits shadow 20:39:57 44° 88° (E) 978 2.2 -22.0°
Maximum altitude 20:40:26 45° 71° (ENE) 957 2.3 -22.0°
Drops below altitude 10° 20:44:58 10° 359° (N) 2,181 5.0 -22.6°
Sets 20:47:18 0° 353° (N) 3,104 6.1 -22.8°
